Jackson, MI

8:17 AM EDT on October 18, 2019 (GMT -0400)
Jackson County-Reynolds

Weather History for KJXN - May, 2019

Change the Weather History Date:

Monday, May 13, 2019

  Actual Average Record
Temperature  
Mean Temperature 46 °F 57 °F  
Max Temperature 55 °F 68 °F 88 °F (1977)
Min Temperature 37 °F 45 °F 28 °F (2013)
Degree Days  
Heating Degree Days 19 9  
Month to date heating degree days 159 138  
Since 1 July heating degree days 6556 6484  
Cooling Degree Days 0 1  
Month to date cooling degree days 0 6  
Year to date cooling degree days 0 12  
Moisture  
Dew Point 41 °F    
Average Humidity 72    
Maximum Humidity 93    
Minimum Humidity 51    
Precipitation  
Precipitation 0.14 in 0.11 in 1.03 in (2014)
Month to date precipitation 1.17 1.32  
Year to date precipitation 9.41 8.61  
Sea Level Pressure  
Sea Level Pressure 29.85 in    
Wind  
Wind Speed 7 mph (NNW)    
Max Wind Speed 14 mph    
Max Gust Speed 24 mph    
Visibility 9 miles    
Events Rain    
T = Trace of Precipitation, MM = Missing Value Source: NWS Daily Summary

Daily Weather History Graph

Daily Weather History Graph

Search for Another Location

Airport or City:

Astronomy

May. 13, 2019 Rise Set
Actual Time 6:18 AM EDT 8:50 PM EDT
Civil Twilight 5:47 AM EDT 9:22 PM EDT
Nautical Twilight 5:07 AM EDT 10:01 PM EDT
Astronomical Twilight 4:22 AM EDT 10:46 PM EDT
Moon 2:52 PM EDT (5/13) 3:45 AM EDT (5/13)
Length of Visible Light 15h 34m
Length of Day
14h 31m
Waxing Gibbous, 68% of the Moon is Illuminated
May 13
Waxing Gibbous
May 18
Full
May 26
Last Quarter
Jun 3
New
Jun 10
First Quarter

Hourly Weather History & Observations

Time (EDT) Temp. Windchill Dew Point Humidity Pressure Visibility Wind Dir Wind Speed Gust Speed Precip Events Conditions
12:56 AM 46.9 °F - 45.0 °F 93% 29.81 in 5.0 mi Calm Calm - 0.04 in Rain Light Rain
1:37 AM 46.0 °F 43.1 °F 45.0 °F 96% 29.78 in 4.0 mi NNW 5.8 mph - 0.08 in Rain Rain
1:56 AM 46.0 °F 43.9 °F 45.0 °F 96% 29.79 in 5.0 mi NNW 4.6 mph - 0.11 in Rain Light Rain
2:56 AM 46.0 °F 43.1 °F 45.0 °F 96% 29.77 in 8.0 mi NNW 5.8 mph - 0.04 in Rain Light Rain
3:24 AM 46.0 °F 43.9 °F 45.0 °F 96% 29.75 in 8.0 mi NW 4.6 mph - 0.00 in   Overcast
3:37 AM 46.0 °F 43.1 °F 45.0 °F 96% 29.75 in 9.0 mi NNW 5.8 mph - 0.00 in   Overcast
3:56 AM 46.0 °F 43.1 °F 44.1 °F 93% 29.76 in 10.0 mi NNW 5.8 mph - 0.00 in   Overcast
4:05 AM 46.0 °F 43.9 °F 44.1 °F 93% 29.75 in 10.0 mi NNW 4.6 mph - N/A   Overcast
4:56 AM 46.0 °F 43.1 °F 44.1 °F 93% 29.77 in 10.0 mi North 5.8 mph - N/A   Overcast
5:56 AM 45.0 °F 41.2 °F 43.0 °F 93% 29.78 in 10.0 mi NNW 6.9 mph - N/A   Overcast
6:23 AM 45.0 °F 41.8 °F 43.0 °F 93% 29.77 in 10.0 mi NNW 5.8 mph - N/A   Overcast
6:56 AM 45.0 °F 40.6 °F 42.1 °F 90% 29.80 in 10.0 mi NNW 8.1 mph - N/A   Overcast
7:56 AM 45.0 °F 41.8 °F 42.1 °F 90% 29.82 in 10.0 mi NNW 5.8 mph - N/A   Overcast
8:48 AM 45.0 °F 40.6 °F 42.1 °F 90% 29.81 in 10.0 mi NNW 8.1 mph - N/A   Overcast
8:56 AM 45.0 °F 41.8 °F 42.1 °F 90% 29.83 in 10.0 mi North 5.8 mph - N/A   Overcast
9:43 AM 46.0 °F 41.9 °F 42.1 °F 86% 29.83 in 10.0 mi North 8.1 mph - N/A   Overcast
9:56 AM 46.0 °F 42.5 °F 42.1 °F 86% 29.84 in 10.0 mi North 6.9 mph - N/A   Overcast
10:34 AM 46.9 °F - 41.0 °F 80% 29.83 in 10.0 mi North 8.1 mph - N/A   Overcast
10:56 AM 46.9 °F - 42.1 °F 83% 29.86 in 10.0 mi NNW 11.5 mph - N/A   Overcast
11:56 AM 46.9 °F - 39.9 °F 77% 29.87 in 10.0 mi NNW 9.2 mph - N/A   Overcast
12:56 PM 48.0 °F - 39.9 °F 74% 29.88 in 10.0 mi NNW 9.2 mph - N/A   Overcast
1:56 PM 48.9 °F - 39.9 °F 71% 29.88 in 10.0 mi NW 8.1 mph 18.4 mph N/A   Overcast
2:56 PM 50.0 °F - 39.9 °F 68% 29.89 in 10.0 mi NW 9.2 mph 19.6 mph N/A   Overcast
3:56 PM 50.0 °F - 39.0 °F 66% 29.90 in 10.0 mi NNW 13.8 mph 24.2 mph N/A   Overcast
4:19 PM 50.0 °F - 39.0 °F 66% 29.89 in 10.0 mi NNW 10.4 mph - N/A   Overcast
4:56 PM 52.0 °F - 39.0 °F 61% 29.90 in 10.0 mi North 9.2 mph - N/A   Mostly Cloudy
5:56 PM 55.0 °F - 37.9 °F 53% 29.91 in 10.0 mi North 12.7 mph 18.4 mph N/A   Mostly Cloudy
6:56 PM 54.0 °F - 37.9 °F 55% 29.92 in 10.0 mi NW 4.6 mph - N/A   Overcast
7:56 PM 54.0 °F - 37.9 °F 55% 29.93 in 10.0 mi NNW 6.9 mph - N/A   Scattered Clouds
8:56 PM 52.0 °F - 39.0 °F 61% 29.94 in 10.0 mi Calm Calm - N/A   Partly Cloudy
9:56 PM 43.0 °F 40.3 °F 39.0 °F 86% 29.95 in 10.0 mi SW 4.6 mph - N/A   Clear
10:56 PM 42.1 °F - 39.0 °F 89% 29.98 in 10.0 mi Calm Calm - N/A   Clear
11:56 PM 39.9 °F - 37.9 °F 93% 29.98 in 10.0 mi Calm Calm - N/A   Clear